| time (UTC) | temp F | wind direction | speed knots | gust knots | rain 1hr in | rain 24hr in | rain mn in | humidity % | barometer mb |
| 20260506185705 | 61 | 208 | 4.3 | 10.4 | 0.04 | 0.52 | 0.42 | 94 | 1004.4 |
| 20260506184705 | 61 | 205 | 6.1 | 10.4 | 0.05 | 0.52 | 0.42 | 93 | 1004.5 |
| 20260506184206 | 61 | 209 | 3.5 | 8.7 | 0.05 | 0.51 | 0.41 | 93 | 1004.4 |
| 20260506183705 | 61 | 194 | 6.1 | 10.4 | 0.05 | 0.51 | 0.41 | 93 | 1004.4 |
| 20260506183205 | 61 | 215 | 6.1 | 13.0 | 0.06 | 0.51 | 0.41 | 92 | 1004.4 |
| 20260506182705 | 61 | 175 | 3.5 | 10.4 | 0.06 | 0.51 | 0.41 | 92 | 1004.5 |
| 20260506182205 | 61 | 210 | 5.2 | 13.0 | 0.07 | 0.51 | 0.41 | 92 | 1004.6 |
| 20260506181705 | 61 | 194 | 6.1 | 13.0 | 0.06 | 0.50 | 0.40 | 92 | 1004.7 |
| 20260506180706 | 61 | 214 | 7.0 | 13.0 | 0.05 | 0.48 | 0.38 | 92 | 1004.8 |
| 20260506180205 | 61 | 209 | 5.2 | 10.4 | 0.06 | 0.48 | 0.38 | 93 | 1004.8 |
| 20260506175205 | 61 | 221 | 4.3 | 10.4 | 0.07 | 0.47 | 0.37 | 92 | 1004.9 |
| 20260506174705 | 61 | 201 | 4.3 | 10.4 | 0.08 | 0.47 | 0.37 | 92 | 1004.8 |
| 20260506173705 | 61 | 209 | 7.8 | 13.0 | 0.08 | 0.46 | 0.36 | 91 | 1004.8 |
| 20260506173205 | 61 | 212 | 4.3 | 10.4 | 0.08 | 0.45 | 0.35 | 92 | 1004.8 |
| 20260506172204 | 61 | 203 | 7.8 | 14.8 | 0.09 | 0.44 | 0.34 | 92 | 1004.7 |
| 20260506171705 | 61 | 186 | 6.1 | 13.0 | 0.10 | 0.44 | 0.34 | 92 | 1004.8 |
| 20260506171205 | 61 | 186 | 6.1 | 13.9 | 0.11 | 0.43 | 0.33 | 92 | 1005.0 |
| 20260506170705 | 60 | 199 | 7.8 | 13.9 | 0.12 | 0.43 | 0.33 | 91 | 1005.1 |
| 20260506170206 | 60 | 197 | 6.1 | 14.8 | 0.13 | 0.42 | 0.32 | 90 | 1005.3 |
| 20260506165709 | 60 | 198 | 4.3 | 7.8 | 0.13 | 0.41 | 0.31 | 89 | 1005.5 |
| 20260506165205 | 60 | 213 | 5.2 | 10.4 | 0.13 | 0.40 | 0.30 | 88 | 1005.4 |
| 20260506164705 | 60 | 200 | 5.2 | 13.0 | 0.13 | 0.39 | 0.29 | 88 | 1005.4 |
| 20260506164205 | 60 | 209 | 4.3 | 12.2 | 0.13 | 0.38 | 0.28 | 88 | 1005.6 |
| 20260506163704 | 59 | 199 | 7.0 | 13.0 | 0.14 | 0.38 | 0.28 | 88 | 1005.5 |
| 20260506163204 | 59 | 203 | 6.1 | 11.3 | 0.15 | 0.37 | 0.27 | 88 | 1005.6 |
| 20260506162705 | 59 | 198 | 3.5 | 11.3 | 0.15 | 0.36 | 0.26 | 88 | 1005.5 |
| 20260506161705 | 59 | 209 | 5.2 | 10.4 | 0.15 | 0.34 | 0.24 | 88 | 1005.7 |
| 20260506161205 | 59 | 207 | 3.5 | 10.4 | 0.13 | 0.32 | 0.22 | 88 | 1005.8 |
| 20260506160705 | 59 | 210 | 5.2 | 10.4 | 0.13 | 0.31 | 0.21 | 88 | 1005.9 |
| 20260506160206 | 59 | 187 | 4.3 | 8.7 | 0.11 | 0.29 | 0.19 | 88 | 1006.1 |
| 20260506155704 | 58 | 188 | 5.2 | 10.4 | 0.11 | 0.28 | 0.18 | 88 | 1006.1 |
| 20260506154205 | 57 | 200 | 2.6 | 4.3 | 0.11 | 0.25 | 0.15 | 88 | 1006.3 |
| 20260506153706 | 57 | 189 | 0.0 | 2.6 | 0.10 | 0.24 | 0.14 | 88 | 1006.3 |
| 20260506152705 | 57 | 130 | 0.0 | 0.0 | 0.09 | 0.21 | 0.11 | 88 | 1006.2 |
| 20260506152205 | 57 | 129 | 0.0 | 0.0 | 0.09 | 0.20 | 0.10 | 88 | 1006.3 |
| 20260506151705 | 57 | 138 | 0.0 | 0.0 | 0.08 | 0.19 | 0.09 | 88 | 1006.3 |
| 20260506151205 | 57 | 119 | 0.0 | 0.0 | 0.08 | 0.19 | 0.09 | 88 | 1006.3 |
| 20260506150705 | 57 | 119 | 0.0 | 0.0 | 0.07 | 0.18 | 0.08 | 88 | 1006.5 |
| 20260506150205 | 57 | 119 | 0.0 | 0.0 | 0.07 | 0.18 | 0.08 | 88 | 1006.5 |
| 20260506145705 | 56 | 119 | 0.0 | 0.0 | 0.06 | 0.17 | 0.07 | 88 | 1006.5 |
| 20260506145205 | 56 | 117 | 0.0 | 0.0 | 0.05 | 0.16 | 0.06 | 88 | 1006.6 |
| 20260506144704 | 56 | 117 | 0.0 | 0.0 | 0.04 | 0.15 | 0.05 | 88 | 1006.8 |
| 20260506144205 | 56 | 117 | 0.0 | 0.0 | 0.03 | 0.14 | 0.04 | 88 | 1006.8 |
| 20260506143705 | 56 | 126 | 0.0 | 0.0 | 0.03 | 0.14 | 0.04 | 88 | 1006.8 |
| 20260506142205 | 56 | 114 | 0.9 | 2.6 | 0.00 | 0.11 | 0.01 | 88 | 1006.9 |
| 20260506141705 | 56 | 115 | 0.9 | 1.7 | 0.00 | 0.11 | 0.01 | 88 | 1007.0 |
| 20260506141205 | 56 | 88 | 0.9 | 1.7 | 0.00 | 0.11 | 0.01 | 88 | 1007.0 |
| 20260506140705 | 55 | 85 | 1.7 | 1.7 | 0.00 | 0.11 | 0.01 | 88 | 1006.9 |
| 20260506140206 | 55 | 78 | 0.9 | 1.7 | 0.00 | 0.11 | 0.01 | 88 | 1007.1 |
| 20260506135705 | 55 | 78 | 0.9 | 1.7 | 0.00 | 0.11 | 0.01 | 88 | 1007.1 |
| 20260506134705 | 55 | 30 | 0.0 | 0.0 | 0.00 | 0.11 | 0.01 | 88 | 1006.8 |
| 20260506134205 | 55 | 30 | 0.0 | 0.0 | 0.00 | 0.11 | 0.01 | 88 | 1006.9 |
| 20260506132204 | 55 | 30 | 0.0 | 1.7 | 0.00 | 0.11 | 0.01 | 88 | 1006.6 |
| 20260506131705 | 55 | 30 | 0.0 | 0.0 | 0.00 | 0.11 | 0.01 | 88 | 1006.7 |
| 20260506131205 | 55 | 30 | 0.0 | 0.0 | 0.00 | 0.11 | 0.01 | 88 | 1006.8 |
| 20260506130705 | 55 | 30 | 0.9 | 1.7 | 0.00 | 0.11 | 0.01 | 88 | 1006.8 |
| 20260506130205 | 55 | 123 | 0.9 | 1.7 | 0.00 | 0.11 | 0.01 | 88 | 1006.8 |
| 20260506125705 | 55 | 111 | 0.0 | 2.6 | 0.00 | 0.11 | 0.01 | 88 | 1006.8 |
| 20260506125205 | 55 | 83 | 0.9 | 2.6 | 0.00 | 0.11 | 0.01 | 88 | 1006.8 |
| 20260506124205 | 54 | 101 | 0.9 | 2.6 | 0.00 | 0.11 | 0.01 | 88 | 1007.0 |
| 20260506123705 | 54 | 88 | 0.0 | 2.6 | 0.00 | 0.11 | 0.01 | 88 | 1007.3 |
| 20260506123205 | 54 | 91 | 0.9 | 2.6 | 0.00 | 0.11 | 0.01 | 88 | 1007.4 |
| 20260506122705 | 54 | 91 | 0.0 | 2.6 | 0.00 | 0.11 | 0.01 | 88 | 1007.5 |
| 20260506122205 | 54 | 103 | 0.0 | 0.0 | 0.00 | 0.11 | 0.01 | 88 | 1007.6 |
| 20260506121204 | 54 | 100 | 0.0 | 0.0 | 0.00 | 0.11 | 0.01 | 88 | 1007.6 |
| 20260506120705 | 54 | 103 | 0.0 | 0.9 | 0.00 | 0.11 | 0.01 | 88 | 1007.5 |
| 20260506120204 | 54 | 103 | 0.0 | 0.0 | 0.00 | 0.11 | 0.01 | 88 | 1007.6 |
| 20260506115204 | 54 | 103 | 0.0 | 0.9 | 0.00 | 0.11 | 0.01 | 88 | 1007.4 |
| 20260506114204 | 54 | 110 | 0.0 | 0.0 | 0.00 | 0.11 | 0.01 | 88 | 1007.1 |
| 20260506113706 | 54 | 111 | 0.0 | 0.0 | 0.00 | 0.11 | 0.01 | 88 | 1007.1 |
| 20260506113204 | 53 | 237 | 0.0 | 0.0 | 0.00 | 0.11 | 0.01 | 88 | 1007.1 |
| 20260506112706 | 53 | 225 | 0.0 | 0.0 | 0.00 | 0.11 | 0.01 | 88 | 1007.1 |
| 20260506110706 | 53 | 57 | 0.0 | 0.0 | 0.00 | 0.11 | 0.01 | 88 | 1006.9 |
| 20260506110205 | 53 | 273 | 0.0 | 0.0 | 0.00 | 0.11 | 0.01 | 88 | 1007.1 |
| 20260506105704 | 53 | 273 | 0.0 | 0.0 | 0.00 | 0.11 | 0.01 | 88 | 1007.0 |
| 20260506105204 | 53 | 273 | 0.0 | 0.0 | 0.00 | 0.11 | 0.01 | 88 | 1007.0 |
| 20260506104705 | 53 | 265 | 0.0 | 0.0 | 0.00 | 0.11 | 0.01 | 88 | 1007.0 |
| 20260506104204 | 53 | 259 | 0.0 | 0.0 | 0.00 | 0.11 | 0.01 | 88 | 1007.0 |
| 20260506103704 | 52 | 259 | 0.0 | 0.0 | 0.01 | 0.11 | 0.01 | 88 | 1006.9 |
| 20260506103205 | 52 | 259 | 0.0 | 0.0 | 0.01 | 0.11 | 0.01 | 88 | 1006.8 |
| 20260506102705 | 52 | 322 | 0.0 | 0.0 | 0.01 | 0.11 | 0.01 | 88 | 1006.6 |
| 20260506102205 | 52 | 269 | 0.0 | 0.0 | 0.01 | 0.11 | 0.01 | 88 | 1006.6 |
| 20260506101704 | 52 | 269 | 0.0 | 0.0 | 0.01 | 0.12 | 0.01 | 88 | 1006.6 |
| 20260506101204 | 52 | 179 | 0.0 | 0.0 | 0.01 | 0.13 | 0.01 | 88 | 1006.6 |
| 20260506100705 | 52 | 124 | 0.0 | 0.0 | 0.01 | 0.13 | 0.01 | 88 | 1006.3 |
| 20260506100204 | 52 | 127 | 0.0 | 0.0 | 0.01 | 0.13 | 0.01 | 88 | 1006.4 |
| 20260506095704 | 52 | 142 | 0.0 | 0.0 | 0.01 | 0.13 | 0.01 | 88 | 1006.4 |
| 20260506095205 | 52 | 142 | 0.0 | 0.0 | 0.01 | 0.13 | 0.01 | 88 | 1006.5 |
| 20260506094704 | 52 | 142 | 0.0 | 0.0 | 0.01 | 0.13 | 0.01 | 88 | 1006.7 |
| 20260506094204 | 52 | 142 | 0.0 | 0.0 | 0.01 | 0.13 | 0.01 | 88 | 1006.6 |
| 20260506093705 | 52 | 142 | 0.0 | 0.0 | 0.00 | 0.12 | 0.00 | 88 | 1006.5 |
| 20260506093204 | 52 | 143 | 0.0 | 0.0 | 0.00 | 0.12 | 0.00 | 88 | 1006.4 |
| 20260506092704 | 52 | 172 | 0.0 | 0.0 | 0.00 | 0.12 | 0.00 | 88 | 1006.4 |
| 20260506092205 | 52 | 172 | 0.0 | 0.0 | 0.00 | 0.12 | 0.00 | 88 | 1006.6 |
| 20260506091704 | 52 | 172 | 0.0 | 0.0 | 0.00 | 0.12 | 0.00 | 89 | 1006.6 |
| 20260506091205 | 52 | 172 | 0.0 | 0.0 | 0.00 | 0.12 | 0.00 | 89 | 1006.7 |
| 20260506090704 | 52 | 143 | 0.0 | 0.0 | 0.00 | 0.12 | 0.00 | 89 | 1006.6 |
| 20260506090205 | 52 | 117 | 0.0 | 0.0 | 0.00 | 0.12 | 0.00 | 89 | 1006.4 |
| 20260506085704 | 52 | 108 | 0.0 | 2.6 | 0.00 | 0.12 | 0.00 | 89 | 1006.5 |
| 20260506085204 | 53 | 145 | 0.0 | 1.7 | 0.00 | 0.12 | 0.00 | 89 | 1006.7 |
| 20260506084205 | 53 | 215 | 0.0 | 0.0 | 0.00 | 0.12 | 0.00 | 88 | 1006.9 |
| 20260506083705 | 54 | 215 | 0.0 | 0.0 | 0.00 | 0.12 | 0.00 | 88 | 1007.0 |
| 20260506083204 | 54 | 215 | 0.0 | 0.0 | 0.00 | 0.12 | 0.00 | 88 | 1007.0 |
| 20260506082705 | 54 | 215 | 0.0 | 0.0 | 0.00 | 0.12 | 0.00 | 88 | 1007.0 |
| 20260506082204 | 54 | 215 | 0.0 | 0.0 | 0.00 | 0.12 | 0.00 | 88 | 1007.0 |
| 20260506081705 | 54 | 215 | 0.0 | 0.0 | 0.00 | 0.12 | 0.00 | 88 | 1007.0 |
| 20260506081204 | 54 | 215 | 0.0 | 0.0 | 0.00 | 0.12 | 0.00 | 88 | 1007.0 |
| 20260506080704 | 54 | 215 | 0.0 | 0.0 | 0.00 | 0.12 | 0.00 | 88 | 1007.0 |
| 20260506080205 | 54 | 215 | 0.0 | 0.0 | 0.00 | 0.12 | 0.00 | 88 | 1007.0 |
| 20260506072704 | 55 | 215 | 0.0 | 0.9 | 0.00 | 0.12 | 0.00 | 88 | 1007.5 |
| 20260506072204 | 55 | 215 | 0.9 | 1.7 | 0.00 | 0.12 | 0.00 | 88 | 1007.6 |
| 20260506071704 | 55 | 71 | 0.0 | 1.7 | 0.00 | 0.12 | 0.00 | 89 | 1007.6 |
| 20260506071204 | 55 | 205 | 1.7 | 2.6 | 0.00 | 0.12 | 0.00 | 88 | 1007.8 |
| 20260506070704 | 55 | 44 | 0.0 | 0.0 | 0.00 | 0.12 | 0.00 | 88 | 1007.6 |
| 20260506070204 | 55 | 175 | 0.0 | 0.0 | 0.00 | 0.12 | 0.00 | 88 | 1007.7 |
| 20260506062204 | 56 | 175 | 0.0 | 0.0 | 0.00 | 0.12 | 0.00 | 88 | 1008.1 |
| 20260506061205 | 56 | 175 | 0.0 | 0.0 | 0.00 | 0.12 | 0.00 | 88 | 1008.0 |
| 20260506060705 | 56 | 175 | 0.0 | 0.0 | 0.00 | 0.12 | 0.00 | 89 | 1008.0 |
| 20260506060205 | 56 | 156 | 0.0 | 0.0 | 0.00 | 0.12 | 0.00 | 89 | 1008.0 |
| 20260506051205 | 57 | 134 | 0.0 | 0.0 | 0.00 | 0.12 | 0.00 | 89 | 1008.2 |
| 20260506050705 | 57 | 134 | 0.0 | 0.0 | 0.00 | 0.12 | 0.00 | 89 | 1008.3 |
| 20260506050204 | 57 | 134 | 0.0 | 0.0 | 0.00 | 0.12 | 0.00 | 90 | 1008.3 |
| 20260506044704 | 57 | 107 | 0.9 | 2.6 | 0.00 | 0.12 | 0.00 | 90 | 1008.5 |
| 20260506044204 | 58 | 74 | 0.0 | 0.0 | 0.00 | 0.12 | 0.00 | 90 | 1008.5 |
| 20260506043704 | 58 | 60 | 0.0 | 0.0 | 0.00 | 0.12 | 0.00 | 90 | 1008.5 |
| 20260506043204 | 58 | 333 | 0.0 | 0.0 | 0.00 | 0.12 | 0.00 | 90 | 1008.6 |
| 20260506041705 | 58 | 317 | 0.0 | 0.0 | 0.00 | 0.12 | 0.00 | 89 | 1008.4 |
| 20260506040704 | 58 | 355 | 0.0 | 1.7 | 0.00 | 0.12 | 0.00 | 89 | 1008.3 |
| 20260506035204 | 59 | 319 | 0.9 | 2.6 | 0.02 | 0.12 | 0.12 | 89 | 1008.1 |
| 20260506034705 | 59 | 311 | 0.9 | 2.6 | 0.02 | 0.12 | 0.12 | 89 | 1007.9 |
| 20260506034205 | 59 | 319 | 0.9 | 1.7 | 0.02 | 0.12 | 0.12 | 89 | 1007.8 |
| 20260506033705 | 59 | 358 | 0.9 | 1.7 | 0.02 | 0.12 | 0.12 | 90 | 1007.7 |
| 20260506033205 | 59 | 0 | 1.7 | 2.6 | 0.02 | 0.12 | 0.12 | 90 | 1007.4 |
| 20260506032704 | 59 | 131 | 2.6 | 4.3 | 0.03 | 0.12 | 0.12 | 90 | 1007.5 |
| 20260506032204 | 60 | 116 | 0.0 | 2.6 | 0.05 | 0.12 | 0.12 | 91 | 1007.5 |
| 20260506031204 | 60 | 93 | 1.7 | 2.6 | 0.06 | 0.12 | 0.12 | 91 | 1007.2 |
| 20260506030704 | 60 | 69 | 0.0 | 0.0 | 0.06 | 0.12 | 0.12 | 91 | 1007.6 |
| 20260506025705 | 60 | 87 | 0.0 | 0.9 | 0.05 | 0.10 | 0.10 | 93 | 1007.9 |
| 20260506025204 | 60 | 88 | 0.0 | 0.9 | 0.05 | 0.10 | 0.10 | 93 | 1007.5 |
| 20260506024705 | 60 | 89 | 1.7 | 2.6 | 0.05 | 0.10 | 0.10 | 93 | 1007.1 |
| 20260506024204 | 60 | 48 | 0.9 | 1.7 | 0.05 | 0.10 | 0.10 | 94 | 1007.2 |
| 20260506023205 | 60 | 126 | 0.0 | 1.7 | 0.05 | 0.10 | 0.10 | 94 | 1007.2 |
| 20260506022704 | 61 | 97 | 0.9 | 1.7 | 0.04 | 0.09 | 0.09 | 94 | 1007.1 |
| 20260506022205 | 61 | 58 | 0.0 | 0.9 | 0.02 | 0.07 | 0.07 | 94 | 1007.4 |
| 20260506021704 | 61 | 52 | 0.0 | 0.9 | 0.01 | 0.06 | 0.06 | 94 | 1007.4 |
| 20260506021204 | 61 | 52 | 0.9 | 1.7 | 0.01 | 0.06 | 0.06 | 95 | 1007.0 |
| 20260506020704 | 61 | 58 | 0.9 | 2.6 | 0.01 | 0.06 | 0.06 | 94 | 1007.1 |
| 20260506020204 | 62 | 159 | 0.9 | 2.6 | 0.00 | 0.05 | 0.05 | 93 | 1007.4 |
| 20260506015204 | 62 | 187 | 1.7 | 2.6 | 0.00 | 0.05 | 0.05 | 93 | 1007.2 |
| 20260506014704 | 61 | 176 | 1.7 | 4.3 | 0.00 | 0.05 | 0.05 | 94 | 1007.1 |
| 20260506014204 | 61 | 154 | 1.7 | 2.6 | 0.00 | 0.05 | 0.05 | 94 | 1007.0 |
| 20260506013704 | 61 | 168 | 1.7 | 2.6 | 0.00 | 0.05 | 0.05 | 94 | 1007.0 |
| 20260506013204 | 61 | 178 | 0.0 | 2.6 | 0.00 | 0.05 | 0.05 | 94 | 1007.0 |
| 20260506011705 | 61 | 136 | 2.6 | 2.6 | 0.00 | 0.05 | 0.05 | 94 | 1006.9 |
| 20260506011204 | 61 | 131 | 4.3 | 5.2 | 0.00 | 0.05 | 0.05 | 94 | 1006.9 |
| 20260506010705 | 61 | 118 | 2.6 | 2.6 | 0.00 | 0.05 | 0.05 | 94 | 1006.8 |
| 20260506005704 | 61 | 171 | 0.9 | 2.6 | 0.00 | 0.05 | 0.05 | 93 | 1006.8 |
| 20260506005204 | 61 | 162 | 0.9 | 2.6 | 0.00 | 0.05 | 0.05 | 93 | 1006.7 |
| 20260506004704 | 61 | 192 | 0.9 | 1.7 | 0.00 | 0.05 | 0.05 | 93 | 1006.8 |
| 20260506003704 | 61 | 158 | 0.9 | 2.6 | 0.00 | 0.05 | 0.05 | 94 | 1006.5 |
| 20260506002704 | 61 | 147 | 1.7 | 2.6 | 0.00 | 0.05 | 0.05 | 94 | 1006.3 |
| 20260506002205 | 61 | 145 | 1.7 | 2.6 | 0.00 | 0.05 | 0.05 | 94 | 1006.1 |
| 20260506001204 | 62 | 149 | 0.0 | 0.9 | 0.00 | 0.05 | 0.05 | 94 | 1006.0 |
| 20260506000705 | 62 | 71 | 0.0 | 0.0 | 0.00 | 0.05 | 0.05 | 93 | 1005.9 |